Location: Northcutt
(34.7304°N, 84.4305°W)
Time: 13:37:23
(UTC+00:00)

Hubble Space Telescope - Pass Details

Date: 14 August 2022
Orbit: 531 x 535 km, 28.5° (Epoch: 27 September)

Event Time Altitude Azimuth Distance (km) Brightness Sun altitude
Rises 00:50:21 0° 260° (W) 2,667 5.5 -5.2°
Reaches altitude 10° 00:52:47 10° 250° (WSW) 1,777 4.2 -5.6°
Maximum altitude 00:56:25 30° 188° (S) 960 1.9 -6.3°
Drops below altitude 10° 01:00:03 10° 125° (SE) 1,776 2.8 -7.0°
Enters shadow 01:00:23 - 123° (ESE) 1,893 2.9 -7.1°
